Weather observations for the past three days for
Greenville Spartanburg International Airport
Metric (Imperial)
Date Time (edt) Wind (kph) Vis. (km) Weather Sky Cond. Temperature (ºC) Relative Humidity Wind Chill (°C) Heat Index (°C) Pressure Precipitation (cm)
Air Dwpt 6 hour altimeter (cm) sea level (mb) 1 hr 3 hr 6 hr
Max. Min.
05 19:53 SE 7 16.09 Fair CLR 26.1 20.6 36.1 24.4 72% 28 75.92 1011.1
05 18:53 W 6 16.09 Fair CLR 27.2 20 65% 29 75.92 1010.9
05 17:53 Calm 16.09 Fair CLR 26.7 21.1 71% 28 75.95 1011.1
05 16:53 N 6 16.09 A Few Clouds FEW100 26.1 21.1 74% 28 76 1011.9
05 13:53 NE 13 16.09 Fair CLR 35.6 20.6 35.6 24.4 41% 39 76 1011.5
05 12:53 Vrbl 7 16.09 Fair CLR 34.4 22.2 49% 39 76.07 1012.5
05 11:53 Vrbl 6 16.09 Fair CLR 33.9 21.7 49% 38 76.1 1013.0
05 10:53 SW 7 16.09 Fair CLR 31.7 22.2 57% 36 76.12 1013.3
05 09:53 SW 6 16.09 Fair CLR 29.4 22.2 65% 33 76.15 1013.7
05 08:53 W 9 16.09 Fair CLR 26.7 22.2 76% 29 76.15 1013.9
05 07:53 SW 7 16.09 Fair CLR 24.4 21.7 25.6 22.8 85% 25 76.12 1013.6
05 06:53 SW 7 16.09 Fair CLR 23.3 21.1 88% 76.07 1012.8
05 05:53 SW 9 16.09 Fair CLR 23.3 21.1 88% 76.05 1012.3
05 04:53 SW 7 16.09 Fair CLR 22.8 21.1 90% 76.05 1012.5
05 03:53 Calm 16.09 Fair CLR 23.3 20.6 85% 76.1 1012.8
05 02:53 Calm 16.09 Fair CLR 25 20.6 77% 26 76.12 1013.2
05 01:53 S 6 16.09 Fair CLR 25 21.1 30.6 24.4 79% 26 76.15 1013.7
05 00:53 Calm 16.09 Fair CLR 26.1 21.1 74% 28 76.15 1013.8
04 23:53 SW 11 16.09 Fair CLR 26.1 21.1 74% 28 76.15 1013.7
04 22:53 SW 7 16.09 Fair CLR 27.2 21.7 72% 29 76.2 1014.4
04 21:53 SW 6 16.09 Fair CLR 27.8 21.1 67% 30 76.2 1014.6
04 20:53 Calm 16.09 Fair CLR 27.8 21.1 67% 30 76.17 1014.3
04 19:53 Calm 16.09 Fair CLR 30.6 20.6 35.6 30 55% 33 76.15 1013.8
04 18:53 E 9 16.09 Fair CLR 33.9 19.4 42% 36 76.12 1013.4
04 17:53 E 11 16.09 Fair CLR 35 20 41% 38 76.12 1013.4
04 16:53 E 9 16.09 Fair CLR 34.4 21.1 46% 38 76.12 1013.6
04 15:53 NE 7 16.09 A Few Clouds FEW055 35 20 41% 38 76.2 1014.2
04 14:53 NE 9 16.09 Mostly Cloudy BKN055 33.9 19.4 42% 36 76.25 1015.3
04 13:53 E 15 16.09 Fair CLR 34.4 21.7 35 24.4 48% 38 76.33 1015.9
04 12:53 N 6 16.09 Fair CLR 33.3 21.1 49% 37 76.35 1016.4
04 11:53 SW 6 16.09 Fair CLR 32.2 22.2 56% 36 76.4 1016.9
04 10:53 W 9 16.09 Fair CLR 30.6 22.2 61% 34 76.4 1017.0
04 09:53 W 13 16.09 Fair CLR 28.9 22.2 67% 32 76.38 1017.0
04 08:53 SW 11 16.09 Fair CLR 26.7 22.2 76% 29 76.4 1017.0
04 07:53 SW 7 16.09 Fair CLR 24.4 22.2 25 22.8 88% 25 76.38 1016.7
04 06:53 S 11 16.09 Fair CLR 22.8 21.1 90% 76.35 1016.6
04 05:53 SW 7 16.09 Fair CLR 23.9 21.7 88% 24 76.33 1016.2
04 04:53 S 7 16.09 Fair CLR 23.3 21.7 91% 76.3 1015.8
04 03:53 SW 6 16.09 Fair CLR 23.3 21.7 91% 76.3 1015.6
04 02:53 Calm 16.09 Fair CLR 23.9 21.7 88% 24 76.3 1015.8
04 01:53 Calm 16.09 Fair CLR 25 21.7 32.2 25 82% 26 76.35 1016.3
04 00:53 S 6 16.09 Fair CLR 26.1 21.7 77% 28 76.38 1016.6
03 23:53 S 9 16.09 A Few Clouds FEW060 27.8 21.1 67% 30 76.38 1016.8
03 22:53 Calm 16.09 Fair CLR 26.1 22.2 79% 28 76.4 1017.0
03 21:53 Calm 16.09 Fair CLR 26.7 21.7 74% 29 76.38 1016.7
03 20:53 SE 7 16.09 Fair CLR 30 21.1 59% 33 76.3 1015.9
03 19:53 SE 6 16.09 Fair CLR 32.2 20.6 36.1 31.7 50% 35 76.25 1015.1
03 18:53 S 9 16.09 Fair CLR 32.8 20 47% 35 76.25 1015.0
03 17:53 SE 9 16.09 Fair CLR 33.9 20.6 46% 37 76.25 1015.0
03 16:53 NE 9 16.09 Mostly Cloudy BKN060 35 20.6 43% 38 76.25 1015.1
03 15:53 Vrbl 9 16.09 A Few Clouds FEW060 35 20.6 43% 38 76.3 1015.7
03 14:53 SE 13 16.09 Fair CLR 35.6 20.6 41% 39 76.35 1016.3
03 13:53 Vrbl 7 16.09 Fair CLR 33.9 21.1 34.4 23.3 47% 37 76.38 1016.8
03 12:53 E 15 16.09 Fair CLR 34.4 21.1 46% 38 76.43 1017.4
03 11:53 N 11 16.09 Fair CLR 32.8 22.2 54% 37 76.45 1017.8
03 10:53 N 6 16.09 Fair CLR 31.1 21.7 57% 34 76.45 1017.7
03 09:53 Calm 16.09 Fair CLR 28.9 22.8 70% 32 76.45 1017.8
03 08:53 N 6 16.09 Fair CLR 26.7 23.3 82% 29 76.48 1018.2
03 07:53 Calm 14.48 Fair CLR 23.3 22.2 25 22.2 94% 76.48 1018.1
03 06:53 Calm 16.09 Fair CLR 22.2 21.7 97% 76.4 1017.3
03 05:53 Calm 16.09 Fair CLR 22.8 21.7 94% 76.38 1017.0
03 04:53 Calm 6.44 Fog/Mist CLR 23.3 22.2 94% 76.35 1016.6
03 03:53 Calm 16.09 Fair CLR 23.3 21.7 91% 76.35 1016.5
03 02:53 Calm 16.09 Fair CLR 24.4 22.8 91% 24 76.33 1016.2
03 01:53 Calm 16.09 Fair CLR 24.4 22.2 29.4 24.4 88% 25 76.38 1016.7
03 00:53 Calm 16.09 Fair CLR 25 22.2 85% 26 76.38 1016.9
02 23:53 Calm 16.09 Fair CLR 25.6 22.8 85% 27 76.4 1017.2
02 22:53 Calm 16.09 Fair CLR 26.1 22.2 79% 28 76.43 1017.6
02 21:53 N 6 16.09 Fair CLR 26.7 21.1 71% 28 76.43 1017.4
02 20:53 Calm 16.09 Fair CLR 27.8 21.7 69% 30 76.38 1016.8
Date Time (edt) Wind (kph) Vis. (km) Weather Sky Cond. Air Dwpt Max. Min. Relative Humidity Wind Chill (°C) Heat Index (°C) altimeter (cm) sea level (mb) 1 hr 3 hr 6 hr
6 hour
Temperature (ºC) Pressure Precipitation (cm)